• In Deutschland
  • Länderverzeichnis
  • Für 7 Tage
  • Wassertemperatur
  • Satellitenkarten
  • Wetterkarte
  • Widgets
  • user-avatar
    Anmelden

    Stündliche Wetter Saarbrücken

    Heute, 20 August, Montag

    Zeit Temperatur Niederschläge Wind Luftdruck Luftfeuchtigkeit
    00:00 +18°C° 0 mm 1 m/S 743 mmHg 84%
    01:00 +18°C° 0 mm 1 m/S 743 mmHg 86%
    02:00 +18°C° 0 mm 1 m/S 743 mmHg 88%
    03:00 +16°C° 0 mm 1 m/S 743 mmHg 90%
    04:00 +18°C° 0 mm 1 m/S 743 mmHg 88%
    05:00 +19°C° 0 mm 1 m/S 743 mmHg 87%
    06:00 +19°C° 0 mm 1 m/S 743 mmHg 85%
    07:00 +21°C° 0 mm 1 m/S 743 mmHg 81%
    08:00 +21°C° 0 mm 2 m/S 744 mmHg 77%
    09:00 +23°C° 0 mm 2 m/S 744 mmHg 73%
    10:00 +24°C° 0 mm 2 m/S 744 mmHg 72%
    11:00 +24°C° 0 mm 2 m/S 743 mmHg 70%
    12:00 +24°C° 0 mm 2 m/S 743 mmHg 68%
    13:00 +25°C° 0 mm 2 m/S 743 mmHg 68%
    14:00 +25°C° 0 mm 3 m/S 743 mmHg 67%
    15:00 +25°C° 0 mm 3 m/S 743 mmHg 66%
    16:00 +24°C° 0 mm 2 m/S 743 mmHg 70%
    17:00 +23°C° 0 mm 2 m/S 743 mmHg 74%
    18:00 +22°C° 0 mm 1 m/S 743 mmHg 78%
    19:00 +21°C° 0 mm 1 m/S 743 mmHg 81%
    20:00 +20°C° 0 mm 1 m/S 743 mmHg 84%
    21:00 +20°C° 0 mm 1 m/S 743 mmHg 87%
    22:00 +19°C° 0 mm 1 m/S 743 mmHg 88%
    23:00 +19°C° 0 mm 1 m/S 743 mmHg 89%

    Morgen, 21 August, Dienstag

    Zeit Temperatur Niederschläge Wind Luftdruck Luftfeuchtigkeit
    00:00 +17°C° 0 mm 0 m/S 743 mmHg 89%
    01:00 +17°C° 0 mm 0 m/S 743 mmHg 90%
    02:00 +16°C° 0 mm 0 m/S 743 mmHg 90%
    03:00 +16°C° 0 mm 0 m/S 743 mmHg 91%
    04:00 +17°C° 0 mm 0 m/S 743 mmHg 89%
    05:00 +17°C° 0 mm 0 m/S 743 mmHg 88%
    06:00 +17°C° 0 mm 0 m/S 743 mmHg 87%
    07:00 +21°C° 0 mm 1 m/S 743 mmHg 82%
    08:00 +22°C° 0 mm 1 m/S 743 mmHg 76%
    09:00 +24°C° 0 mm 1 m/S 743 mmHg 71%
    10:00 +24°C° 0 mm 1 m/S 743 mmHg 68%
    11:00 +25°C° 0 mm 1 m/S 743 mmHg 65%
    12:00 +26°C° 0 mm 2 m/S 743 mmHg 62%
    13:00 +26°C° 0 mm 1 m/S 742 mmHg 61%
    14:00 +26°C° 0 mm 1 m/S 742 mmHg 60%
    15:00 +27°C° 0 mm 1 m/S 742 mmHg 59%
    16:00 +26°C° 0 mm 1 m/S 742 mmHg 63%
    17:00 +25°C° 0 mm 1 m/S 742 mmHg 67%
    18:00 +24°C° 0 mm 1 m/S 742 mmHg 72%
    19:00 +23°C° 0 mm 1 m/S 742 mmHg 74%
    20:00 +22°C° 0 mm 1 m/S 742 mmHg 77%
    21:00 +21°C° 0 mm 1 m/S 742 mmHg 80%
    22:00 +21°C° 0 mm 1 m/S 742 mmHg 79%
    23:00 +21°C° 0 mm 1 m/S 742 mmHg 78%

    übermorgen, 22 August, Mittwoch

    Zeit Temperatur Niederschläge Wind Luftdruck Luftfeuchtigkeit
    00:00 +20°C° 0 mm 1 m/S 742 mmHg 77%
    01:00 +20°C° 0 mm 1 m/S 742 mmHg 78%
    02:00 +20°C° 0 mm 1 m/S 742 mmHg 79%
    03:00 +19°C° 0 mm 1 m/S 741 mmHg 81%
    04:00 +20°C° 0 mm 1 m/S 742 mmHg 80%
    05:00 +20°C° 0 mm 1 m/S 742 mmHg 79%
    06:00 +21°C° 0 mm 1 m/S 742 mmHg 78%
    07:00 +23°C° 0 mm 1 m/S 742 mmHg 71%
    08:00 +25°C° 0 mm 1 m/S 742 mmHg 65%
    09:00 +25°C° 0 mm 0 m/S 742 mmHg 58%
    10:00 +28°C° 0 mm 1 m/S 742 mmHg 55%
    11:00 +29°C° 0 mm 1 m/S 741 mmHg 52%
    12:00 +30°C° 0 mm 1 m/S 741 mmHg 48%
    13:00 +30°C° 0 mm 1 m/S 741 mmHg 48%
    14:00 +30°C° 0 mm 1 m/S 741 mmHg 48%
    15:00 +29°C° 0 mm 2 m/S 740 mmHg 48%
    16:00 +28°C° 0 mm 2 m/S 740 mmHg 53%
    17:00 +27°C° 0 mm 2 m/S 740 mmHg 58%
    18:00 +25°C° 0 mm 1 m/S 740 mmHg 63%
    19:00 +24°C° 0 mm 1 m/S 740 mmHg 67%
    20:00 +23°C° 0 mm 1 m/S 741 mmHg 70%
    21:00 +21°C° 0 mm 1 m/S 741 mmHg 74%
    22:00 +21°C° 0 mm 1 m/S 741 mmHg 77%
    23:00 +20°C° 0 mm 1 m/S 740 mmHg 79%

    23 August, Donnerstag

    Zeit Temperatur Niederschläge Wind Luftdruck Luftfeuchtigkeit
    00:00 +18°C° 0 mm 0 m/S 740 mmHg 81%
    01:00 +17°C° 0 mm 0 m/S 740 mmHg 82%
    02:00 +17°C° 0 mm 0 m/S 740 mmHg 83%
    03:00 +17°C° 0 mm 0 m/S 739 mmHg 85%
    04:00 +17°C° 0 mm 0 m/S 739 mmHg 82%
    05:00 +18°C° 0 mm 0 m/S 739 mmHg 80%
    06:00 +19°C° 0 mm 0 m/S 739 mmHg 78%
    07:00 +23°C° 0 mm 1 m/S 739 mmHg 71%
    08:00 +25°C° 0 mm 1 m/S 740 mmHg 63%
    09:00 +27°C° 0 mm 1 m/S 740 mmHg 55%
    10:00 +28°C° 0 mm 2 m/S 739 mmHg 51%
    11:00 +29°C° 0 mm 2 m/S 739 mmHg 47%
    12:00 +30°C° 0 mm 2 m/S 738 mmHg 43%
    13:00 +30°C° 0 mm 3 m/S 738 mmHg 42%
    14:00 +30°C° 0 mm 3 m/S 737 mmHg 42%
    15:00 +31°C° 0 mm 3 m/S 737 mmHg 41%
    16:00 +29°C° 0,1 mm 2 m/S 737 mmHg 47%
    17:00 +28°C° 0,1 mm 2 m/S 736 mmHg 53%
    18:00 +26°C° 0,1 mm 1 m/S 736 mmHg 59%
    19:00 +24°C° 1,5 mm 1 m/S 736 mmHg 68%
    20:00 +23°C° 1,5 mm 1 m/S 736 mmHg 76%
    21:00 +21°C° 1,5 mm 1 m/S 736 mmHg 84%
    22:00 +20°C° 0,4 mm 1 m/S 736 mmHg 86%
    23:00 +20°C° 0,4 mm 1 m/S 736 mmHg 89%

    24 August, Freitag

    Zeit Temperatur Niederschläge Wind Luftdruck Luftfeuchtigkeit
    00:00 +19°C° 0,4 mm 1 m/S 736 mmHg 91%
    01:00 +19°C° 0,3 mm 1 m/S 735 mmHg 92%
    02:00 +19°C° 0,3 mm 1 m/S 735 mmHg 92%
    03:00 +19°C° 0,3 mm 1 m/S 735 mmHg 93%
    04:00 +18°C° 0,3 mm 2 m/S 735 mmHg 93%
    05:00 +18°C° 0,3 mm 2 m/S 735 mmHg 93%
    06:00 +18°C° 0,3 mm 3 m/S 735 mmHg 93%
    07:00 +18°C° 0,2 mm 3 m/S 735 mmHg 92%
    08:00 +17°C° 0,2 mm 3 m/S 735 mmHg 90%
    09:00 +17°C° 0,2 mm 3 m/S 735 mmHg 88%
    10:00 +17°C° 0,3 mm 3 m/S 736 mmHg 87%
    11:00 +16°C° 0,3 mm 3 m/S 736 mmHg 87%
    12:00 +16°C° 0,3 mm 3 m/S 736 mmHg 86%
    13:00 +16°C° 0,5 mm 3 m/S 736 mmHg 86%
    14:00 +16°C° 0,5 mm 2 m/S 736 mmHg 86%
    15:00 +15°C° 0,5 mm 2 m/S 737 mmHg 87%
    16:00 +15°C° 0,3 mm 2 m/S 737 mmHg 87%
    17:00 +15°C° 0,3 mm 2 m/S 737 mmHg 87%
    18:00 +15°C° 0,3 mm 2 m/S 737 mmHg 88%
    19:00 +14°C° 0,1 mm 2 m/S 738 mmHg 88%
    20:00 +14°C° 0,1 mm 2 m/S 738 mmHg 89%
    21:00 +13°C° 0,1 mm 2 m/S 738 mmHg 89%
    22:00 +12°C° 0 mm 2 m/S 739 mmHg 89%
    23:00 +12°C° 0 mm 2 m/S 739 mmHg 88%

    25 August, Samstag

    Zeit Temperatur Niederschläge Wind Luftdruck Luftfeuchtigkeit
    00:00 +11°C° 0 mm 1 m/S 739 mmHg 88%
    01:00 +10°C° 0 mm 1 m/S 739 mmHg 88%
    02:00 +10°C° 0 mm 1 m/S 739 mmHg 88%
    03:00 +9°C° 0 mm 1 m/S 739 mmHg 88%
    04:00 +10°C° 0 mm 1 m/S 739 mmHg 86%
    05:00 +10°C° 0 mm 1 m/S 739 mmHg 85%
    06:00 +11°C° 0 mm 1 m/S 740 mmHg 84%
    07:00 +12°C° 0 mm 1 m/S 740 mmHg 77%
    08:00 +14°C° 0 mm 2 m/S 740 mmHg 69%
    09:00 +16°C° 0 mm 2 m/S 740 mmHg 62%
    10:00 +17°C° 0 mm 2 m/S 740 mmHg 56%
    11:00 +18°C° 0 mm 2 m/S 740 mmHg 51%
    12:00 +19°C° 0 mm 2 m/S 740 mmHg 46%
    13:00 +19°C° 0,2 mm 2 m/S 740 mmHg 48%
    14:00 +19°C° 0,2 mm 2 m/S 740 mmHg 50%
    15:00 +18°C° 0,2 mm 2 m/S 739 mmHg 52%
    16:00 +18°C° 0,2 mm 1 m/S 739 mmHg 58%
    17:00 +16°C° 0,2 mm 1 m/S 739 mmHg 63%
    18:00 +15°C° 0,2 mm 1 m/S 739 mmHg 69%
    19:00 +14°C° 0 mm 1 m/S 740 mmHg 71%
    20:00 +13°C° 0 mm 1 m/S 740 mmHg 74%
    21:00 +11°C° 0 mm 0 m/S 740 mmHg 77%
    22:00 +10°C° 0 mm 0 m/S 740 mmHg 79%
    23:00 +10°C° 0 mm 0 m/S 740 mmHg 80%
    Mehr zeigen